User: anonymous   Login
Location: Unspecified
(0.0000°N, 0.0000°E)
Time: 01:23:49
(UTC+02:00)
Language:

ARIANE 5 R/B - Orbit

View from above orbital plane
View from above orbital plane
View from above satellite
View from above satellite

Ground track
Ground track

The orbit data is extracted from the following two-line orbital elements,

1 28886U 05041C   16238.19843071 -.00000192  00000-0  22212-3 0  9990
2 28886   7.8597 113.2705 7184807 239.5388 354.3221  2.24330167 89085
Epoch (UTC): 25 August 2016 04:45:44
Eccentricity: 0.7184807
inclination: 7.8597°
perigee height: 561 km
apogee height: 35981 km
right ascension of ascending node: 113.2705°
argument of perigee: 239.5388°
revolutions per day: 2.24330167
mean anomaly at epoch: 354.3221°
orbit number at epoch: 8908

The dashed part of the orbit path shows where the satellite is in the earth's shadow,  

DLR